Home   Weather   Charlottesville   Past weeks

Flag for USA Past Weather in Charlottesville, Virginia, USA — Yesterday and Last 2 Weeks

Now
63 °F

Low clouds.


Feels Like: 63 °F
Forecast: 62 / 78 °F
Wind: 9 mph from Northeast

Location: Charlottesville-Albemarle Airport

Current Time: Oct 1, 2016 at 1:00:36 AM

Latest Report: Sep 30, 2016 at 11:53 PM


Visibility: 8 mi

Pressure: 30.07 "Hg

Humidity: 93%

Dew Point: 61 °F

Location of CharlottesvilleLocation

Past Weather in Charlottesville — Graph

°F

Charlottesville Temperature Yesterday

Maximum temperature yesterday: 67 °F (at 12:53 AM)
Minimum temperature yesterday: 62 °F (at 9:53 PM)
Average temperature yesterday: 64 °F

High & Low Weather Summary for the Past Weeks

 TemperatureHumidityPressure
High88 °F (Sep 18, 4:53 PM)96% (Sep 27, 5:53 AM)30.28 "Hg (Sep 27, 5:53 AM)
Low59 °F (Sep 25, 10:53 AM)39% (Sep 22, 2:53 PM)29.85 "Hg (Sep 27, 4:53 PM)
Average71 °F79%30.07 "Hg
* Reported Sep 15 11:53 PM — Sep 30 11:53 PM, Charlottesville, Weather by CustomWeather, © 2016

Note: Actual official high and low records may vary slightly from our data, if they occured in-between our weather recording intervals... More about our weather records

Advertising

Charlottesville Weather History for the Previous 24 Hours

Scroll right to see more
 ConditionsComfort  
Time TempWeatherWind HumidityBarometerVisibility
11:53 PM
Fri, Sep 30
63 °FLow clouds.9 mph93%30.07 "Hg8 mi
10:53 PM63 °FLow clouds.12 mph90%30.08 "Hg10 mi
9:53 PM62 °FLight rain. Fog.No wind96%30.09 "Hg3 mi
8:53 PM63 °FLight rain. Fog.9 mph90%30.07 "Hg2 mi
7:53 PM63 °FFog.14 mph90%30.06 "Hg4 mi
6:53 PM63 °FFog.8 mph93%30.08 "Hg2 mi
5:53 PM63 °FFog.13 mph93%30.05 "Hg2 mi
4:53 PM64 °FFog.15 mph90%30.05 "Hg1 mi
3:53 PM64 °FLight rain. Fog.14 mph90%30.05 "Hg1 mi
2:53 PM64 °FFog.12 mph90%30.07 "Hg3 mi
1:53 PM64 °FFog.12 mph90%30.09 "Hg3 mi
1:00 PM64 °FFog.14 mph90%30.12 "Hg3 mi
11:53 AM63 °FFog.14 mph90%30.11 "Hg2 mi
10:53 AM63 °FFog.16 mph90%30.12 "Hg2 mi
9:53 AM63 °FFog.15 mph87%30.11 "Hg2 mi
8:53 AM63 °FFog.16 mph90%30.10 "Hg2 mi
7:53 AM63 °FFog.16 mph90%30.10 "Hg2 mi
6:53 AM63 °FFog.13 mph90%30.09 "Hg4 mi
5:53 AM63 °FFog.16 mph93%30.08 "Hg4 mi
4:53 AM64 °FFog.17 mph90%30.07 "Hg5 mi
3:53 AM64 °FFog.16 mph94%30.06 "Hg4 mi
2:53 AM65 °FFog.13 mph94%30.06 "Hg6 mi
1:53 AM66 °FLight rain. Fog.10 mph90%30.07 "Hg2 mi
Weather by CustomWeather, © 2016

See weather overviewHow to use our weather pages